This demonstration page uses our WeatherBlox Daily Observations layout. Learn more.

Left ArrowRight Arrow

Hourly Observations for January 21, 2017

Temp ( °F °C ) Dew Point ( °F °C ) Humidity (%) Winds ( mph kmh ) Pressure ( in mb ) Visibility ( mi km ) Precip ( " mm )
12:21 am 00:21 Cloudy with Fog 41 5 41 5 100 100 SE 3 6 29.41 996 1 1 0.00 0.00
12:58 am 00:58 Clear with Mist and Fog 41 4.9 41 4.9 100 100 ESE 3 6 29.40 996 1 1 0.00 0.03
1:58 am 01:58 Cloudy with Mist and Fog 41 5 41 5 100 100 ESE 3 6 29.40 996 1 1 0.00 0.03
2:01 am 02:01 Cloudy with Fog 41 5 41 5 100 100 E 3 6 29.41 996 1 1 0.00 0.00
2:59 am 02:59 Cloudy with Fog 41 5.1 41 5.1 100 100 Calm 29.41 996 1 1 0.00 0.00
3:01 am 03:01 Cloudy with Mist and Fog 41 5 41 5 100 100 VRB 3 6 29.41 996 1 1 0.00 0.00
3:58 am 03:58 Cloudy with Mist and Fog 41 4.9 41 4.9 100 100 W 3 6 29.40 996 1 1 0.00 0.00
4:18 am 04:18 Cloudy with Mist and Fog 41 5 41 5 100 100 SSW 6 9 29.41 996 2 3 0.00 0.00
4:58 am 04:58 Cloudy 40 4.4 40 4.4 100 100 Calm 29.41 996 2 3 0.00 0.00
5:01 am 05:01 Clear 39 4 39 4 100 100 Calm 29.41 996 7 11 0.00 0.00
5:14 am 05:14 Cloudy with Mist and Fog 39 4 39 4 100 100 Calm 29.41 996 3 5 0.00 0.00
5:58 am 05:58 Cloudy with Mist and Fog 39 4 39 4 100 100 W 5 7 29.41 996 4 6 0.00 0.00
6:24 am 06:24 Mostly Cloudy with Mist and Fog 39 4 39 4 100 100 WSW 3 6 29.41 996 6 10 0.00 0.00
6:58 am 06:58 Mostly Cloudy with Mist and Fog 37 2.5 37 2.5 100 100 WSW 5 7 29.42 996 6 10 0.00 0.00
7:45 am 07:45 Mostly Cloudy with Mist and Fog 37 3 37 3 100 100 VRB 3 6 29.44 997 6 10 0.00 0.00
7:59 am 07:59 Mostly Cloudy 37 2.8 37 2.8 100 100 SW 6 9 29.44 997 9 14 0.00 0.00
8:17 am 08:17 Mostly Cloudy 37 3 37 3 100 100 W 8 13 29.44 997 7 11 0.00 0.00
8:23 am 08:23 Cloudy with Mist and Fog 37 3 37 3 100 100 WSW 5 7 29.44 997 5 8 0.00 0.00
8:40 am 08:40 Cloudy with Mist and Fog 37 3 37 3 100 100 WSW 10 17 29.50 999 3 4 0.00 0.00
8:44 am 08:44 Cloudy with Mist and Fog 37 3 37 3 100 100 SW 12 19 29.50 999 1 1 0.00 0.00
8:59 am 08:59 Cloudy with Mist and Fog 37 2.6 37 2.6 100 100 SW 8 13 29.47 998 1 1 0.00 0.00
9:23 am 09:23 Cloudy with Mist and Fog 37 3 37 3 100 100 WSW 5 7 29.50 999 2 2 0.00 0.00
9:34 am 09:34 Mostly Cloudy with Mist and Fog 37 3 37 3 100 100 W 6 9 29.50 999 2 3 0.00 0.00
9:47 am 09:47 Mostly Cloudy with Mist and Fog 37 3 37 3 100 100 Calm 29.50 999 5 8 0.00 0.00
9:58 am 09:58 Mostly Cloudy with Mist and Fog 38 3.1 38 3.1 100 100 Calm 29.48 998 5 8 0.00 0.00
10:04 am 10:04 Mostly Cloudy with Mist and Fog 37 3 37 3 100 100 Calm 29.50 999 6 10 0.00 0.00
10:16 am 10:16 Mostly Cloudy 39 4 39 4 100 100 Calm 29.47 998 10 16 0.00 0.00
10:22 am 10:22 Mostly Cloudy 39 4 39 4 100 100 Calm 29.47 998 10 16 0.00 0.00
10:37 am 10:37 Partly Cloudy 41 5 41 5 100 100 W 5 7 29.47 998 10 16 0.00 0.00
10:58 am 10:58 Sunny 42 5.8 42 5.8 100 100 W 6 9 29.47 998 10 16 0.00 0.00
11:58 am 11:58 Sunny 46 7.5 45 7.3 99 99 S 9 15 29.47 998 10 16 0.00 0.00
12:58 pm 12:58 Mostly Sunny 49 9.3 44 6.4 82 82 SW 9 15 29.46 998 10 16 0.00 0.00
1:58 pm 13:58 Sunny 51 10.5 42 5.8 73 73 SW 10 17 29.45 997 10 16 0.00 0.00
2:58 pm 14:58 Sunny 52 11.1 42 5.8 70 70 SW 10 17 29.45 997 10 16 0.00 0.00
3:58 pm 15:58 Sunny 52 11.2 41 4.8 65 65 W 8 13 29.47 998 10 16 0.00 0.00
4:58 pm 16:58 Sunny 49 9.7 40 4.6 71 71 W 6 9 29.50 999 10 16 0.00 0.00
5:58 pm 17:58 Clear 42 5.5 39 4.1 91 91 WSW 3 6 29.52 1000 10 16 0.00 0.00
6:58 pm 18:58 Clear 35 1.4 35 1.4 100 100 Calm 29.54 1001 10 16 0.00 0.00
7:58 pm 19:58 Clear 31 -0.7 31 -0.7 100 100 Calm 29.57 1001 10 16 0.00 0.00
8:58 pm 20:58 Clear 30 -1.2 30 -1.2 100 100 Calm 29.58 1002 10 16 0.00 0.00
9:58 pm 21:58 Clear 31 -0.4 31 -0.4 100 100 WNW 3 6 29.59 1002 10 16 0.00 0.00
10:52 pm 22:52 Clear 27 -3 27 -3 100 100 Calm 29.65 1004 8 13 0.00 0.00
10:59 pm 22:59 Clear 28 -2.4 28 -2.4 100 100 S 3 6 29.60 1002 8 13 0.00 0.00
11:58 pm 23:58 Clear 28 -2.5 28 -2.5 100 100 NNW 6 9 29.59 1002 10 16 0.00 0.00

Powered by AerisWeather